Flag for Canada Weather past 2 weeks in Edmundston, New Brunswick, Canada

Now
8 °F

Frigid.


Feels Like: -6 °F
Forecast: -1 / 7 °F
Wind: 10 mph from Northwest

Location: St Leonard

Current Time: Jan 31, 2015 at 1:05:58 PM

Latest Report: Jan 31, 2015 at 12:00 PM


Visibility: N/A

Pressure: 29.76 "Hg

Humidity: 91%

Dew point: 6 °F

Location of EdmundstonLocation

Historic Weather in Edmundston — Graph

°F

Edmundston temperature yesterday

Maximum temperature yesterday: 28 °F (at 2:00 PM)
Minimum temperature yesterday: 13 °F (at 12:00 AM)
Average temperature yesterday: 20 °F

Past Weeks' High & Low Weather Summary

 TemperatureHumidityPressure
High42 °F (Jan 19, 12:00 PM)98% (Jan 18, 7:00 PM)30.40 "Hg (Jan 18, 7:00 PM)
Low-14 °F (Jan 17, 6:00 AM)46% (Jan 17, 5:00 PM)29.02 "Hg (Jan 25, 3:00 AM)
Average11 °F81%29.88 "Hg
* Reported Jan 16 11:00 AM — Jan 31 11:00 AM, Edmundston, Weather by CustomWeather, © 2014

Note: Actual official high and low records may vary slightly from our data, if they occured in-between our weather recording intervals... More about our weather records

Advertising

Edmundston weather history for previous 24 hours

 ConditionsComfort  
Time TempWeatherWind HumidityBarometerVisibility
11:00 AM
Jan 31
9 °FFrigid.10 mph91%29.78 "HgN/A
10:00 AM9 °FFrigid.8 mph91%29.78 "HgN/A
9:00 AM10 °FFrigid.8 mph92%29.81 "HgN/A
8:00 AM11 °FCold.9 mph92%29.79 "HgN/A
7:00 AM12 °FCold.8 mph93%29.79 "HgN/A
6:00 AM13 °FCold.8 mph93%29.79 "HgN/A
5:00 AM14 °FCold.8 mph94%29.80 "HgN/A
4:00 AM15 °FCold.6 mph95%29.82 "HgN/A
3:00 AM16 °FCold.6 mph95%29.81 "HgN/A
2:00 AM16 °FCold.5 mph95%29.80 "HgN/A
1:00 AM19 °FCold.5 mph95%29.81 "HgN/A
12:00 AM19 °FCold.3 mph95%29.80 "HgN/A
11:00 PM
Jan 30
20 °FCold.3 mph95%29.80 "HgN/A
10:00 PM22 °FCold.2 mph96%29.81 "HgN/A
9:00 PM24 °FCold.2 mph97%29.81 "HgN/A
8:00 PM25 °FChilly.No wind98%29.81 "HgN/A
7:00 PM25 °FChilly.No wind98%29.82 "HgN/A
6:00 PM25 °FChilly.No wind98%29.81 "HgN/A
5:00 PM26 °FChilly.2 mph97%29.81 "HgN/A
4:00 PM26 °FChilly.1 mph96%29.81 "HgN/A
3:00 PM26 °FChilly.No wind96%29.81 "HgN/A
2:00 PM28 °FChilly.2 mph89%29.82 "HgN/A
1:00 PM25 °FChilly.5 mph96%29.84 "HgN/A
Weather by CustomWeather, © 2014

See weather overviewHow to use our weather pages